Torna al catalogo

DEIMOS 1

AttivoScienzaSSO
NORAD 35681·PAYLOAD·🇪🇸 Spain

Lanciato Jul 29, 2009 da Baikonur Cosmodrome

Loading…

Prossimi Passaggi (prossime 24 ore)

TLE

AggiornatoSource: Space-Track

Epoca: Sep 14, 2026, 13:55 UTC

1 35681U 09041A   26257.57990788  .00000006  00000-0  78576-5 0  9996
2 35681  97.7523  50.9999 0000234  92.3691 267.7546 14.75312484920061

Traccia DEIMOS 1 in tempo reale con AllMySat

Download on the App Store